Year,Month,Day,Hour,Minute,Value (Times are PST for windgust in km/hr)
2016,07,04,00,00,16.10
2016,07,04,00,01,8.10
2016,07,04,00,02,11.30
2016,07,04,00,03,17.70
2016,07,04,00,04,12.90
2016,07,04,00,05,14.50
2016,07,04,00,06,14.50
2016,07,04,00,07,14.50
2016,07,04,00,08,14.50
2016,07,04,00,09,16.10
2016,07,04,00,10,14.50
2016,07,04,00,11,12.90
2016,07,04,00,12,16.10
2016,07,04,00,13,16.10
2016,07,04,00,14,16.10
2016,07,04,00,15,19.30
2016,07,04,00,16,17.70
2016,07,04,00,17,20.90
2016,07,04,00,18,14.50
2016,07,04,00,19,17.70
2016,07,04,00,20,16.10
2016,07,04,00,21,9.60
2016,07,04,00,22,19.30
2016,07,04,00,23,22.50
2016,07,04,00,24,17.70
2016,07,04,00,25,17.70
2016,07,04,00,26,16.10
2016,07,04,00,27,20.90
2016,07,04,00,28,11.30
2016,07,04,00,29,19.30
2016,07,04,00,30,11.30
2016,07,04,00,31,11.30
2016,07,04,00,32,16.10
2016,07,04,00,33,8.10
2016,07,04,00,34,11.30
2016,07,04,00,35,14.50
2016,07,04,00,36,17.70
2016,07,04,00,37,14.50
2016,07,04,00,38,9.60
2016,07,04,00,39,14.50
2016,07,04,00,40,9.60
2016,07,04,00,41,12.90
2016,07,04,00,42,9.60
2016,07,04,00,43,14.50
2016,07,04,00,44,9.60
2016,07,04,00,45,9.60
2016,07,04,00,46,16.10
2016,07,04,00,47,16.10
2016,07,04,00,48,11.30
2016,07,04,00,49,22.50
2016,07,04,00,50,19.30
2016,07,04,00,51,9.60
2016,07,04,00,52,14.50
2016,07,04,00,53,9.60
2016,07,04,00,54,19.30
2016,07,04,00,55,14.50
2016,07,04,00,56,17.70
2016,07,04,00,57,16.10
2016,07,04,00,58,20.90
2016,07,04,00,59,20.90
2016,07,04,01,00,19.30
2016,07,04,01,01,16.10
2016,07,04,01,02,19.30
2016,07,04,01,03,16.10
2016,07,04,01,04,16.10
2016,07,04,01,05,22.50
2016,07,04,01,06,17.70
2016,07,04,01,07,20.90
2016,07,04,01,08,19.30
2016,07,04,01,09,19.30
2016,07,04,01,10,16.10
2016,07,04,01,11,12.90
2016,07,04,01,12,14.50
2016,07,04,01,13,20.90
2016,07,04,01,14,22.50
2016,07,04,01,15,16.10
2016,07,04,01,16,14.50
2016,07,04,01,17,12.90
2016,07,04,01,18,17.70
2016,07,04,01,19,14.50
2016,07,04,01,20,16.10
2016,07,04,01,21,9.60
2016,07,04,01,22,12.90
2016,07,04,01,23,14.50
2016,07,04,01,24,14.50
2016,07,04,01,25,14.50
2016,07,04,01,26,16.10
2016,07,04,01,27,19.30
2016,07,04,01,28,16.10
2016,07,04,01,29,9.60
2016,07,04,01,30,14.50
2016,07,04,01,31,11.30
2016,07,04,01,32,9.60
2016,07,04,01,33,11.30
2016,07,04,01,34,9.60
2016,07,04,01,35,11.30
2016,07,04,01,36,17.70
2016,07,04,01,37,17.70
2016,07,04,01,38,16.10
2016,07,04,01,39,16.10
2016,07,04,01,40,11.30
2016,07,04,01,41,11.30
2016,07,04,01,42,11.30
2016,07,04,01,43,20.90
2016,07,04,01,44,19.30
2016,07,04,01,45,11.30
2016,07,04,01,46,12.90
2016,07,04,01,47,11.30
2016,07,04,01,48,14.50
2016,07,04,01,49,14.50
2016,07,04,01,50,17.70
2016,07,04,01,51,12.90
2016,07,04,01,52,9.60
2016,07,04,01,53,16.10
2016,07,04,01,54,16.10
2016,07,04,01,55,12.90
2016,07,04,01,56,9.60
2016,07,04,01,57,11.30
2016,07,04,01,58,16.10
2016,07,04,01,59,11.30
2016,07,04,02,00,9.60
2016,07,04,02,01,14.50
2016,07,04,02,02,14.50
2016,07,04,02,03,14.50
2016,07,04,02,04,11.30
2016,07,04,02,05,16.10
2016,07,04,02,06,9.60
2016,07,04,02,07,9.60
2016,07,04,02,08,17.70
2016,07,04,02,09,24.20
2016,07,04,02,10,16.10
2016,07,04,02,11,9.60
2016,07,04,02,12,16.10
2016,07,04,02,13,16.10
2016,07,04,02,14,12.90
2016,07,04,02,15,12.90
2016,07,04,02,16,14.50
2016,07,04,02,17,16.10
2016,07,04,02,18,8.10
2016,07,04,02,19,14.50
2016,07,04,02,20,19.30
2016,07,04,02,21,14.50
2016,07,04,02,22,16.10
2016,07,04,02,23,17.70
2016,07,04,02,24,20.90
2016,07,04,02,25,16.10
2016,07,04,02,26,20.90
2016,07,04,02,27,25.70
2016,07,04,02,28,20.90
2016,07,04,02,29,19.30
2016,07,04,02,30,24.20
2016,07,04,02,31,19.30
2016,07,04,02,32,9.60
2016,07,04,02,33,9.60
2016,07,04,02,34,16.10
2016,07,04,02,35,11.30
2016,07,04,02,36,22.50
2016,07,04,02,37,19.30
2016,07,04,02,38,19.30
2016,07,04,02,39,19.30
2016,07,04,02,40,16.10
2016,07,04,02,41,11.30
2016,07,04,02,42,14.50
2016,07,04,02,43,9.60
2016,07,04,02,44,22.50
2016,07,04,02,45,20.90
2016,07,04,02,46,16.10
2016,07,04,02,47,16.10
2016,07,04,02,48,16.10
2016,07,04,02,49,17.70
2016,07,04,02,50,17.70
2016,07,04,02,51,22.50
2016,07,04,02,52,22.50
2016,07,04,02,53,14.50
2016,07,04,02,54,11.30
2016,07,04,02,55,14.50
2016,07,04,02,56,16.10
2016,07,04,02,57,16.10
2016,07,04,02,58,11.30
2016,07,04,02,59,16.10
2016,07,04,03,00,17.70
2016,07,04,03,01,11.30
2016,07,04,03,02,22.50
2016,07,04,03,03,16.10
2016,07,04,03,04,16.10
2016,07,04,03,05,14.50
2016,07,04,03,06,16.10
2016,07,04,03,07,16.10
2016,07,04,03,08,19.30
2016,07,04,03,09,16.10
2016,07,04,03,10,11.30
2016,07,04,03,11,12.90
2016,07,04,03,12,16.10
2016,07,04,03,13,20.90
2016,07,04,03,14,14.50
2016,07,04,03,15,20.90
2016,07,04,03,16,16.10
2016,07,04,03,17,19.30
2016,07,04,03,18,16.10
2016,07,04,03,19,19.30
2016,07,04,03,20,16.10
2016,07,04,03,21,14.50
2016,07,04,03,22,17.70
2016,07,04,03,23,17.70
2016,07,04,03,24,16.10
2016,07,04,03,25,16.10
2016,07,04,03,26,16.10
2016,07,04,03,27,9.60
2016,07,04,03,28,16.10
2016,07,04,03,29,11.30
2016,07,04,03,30,9.60
2016,07,04,03,31,11.30
2016,07,04,03,32,9.60
2016,07,04,03,33,12.90
2016,07,04,03,34,14.50
2016,07,04,03,35,16.10
2016,07,04,03,36,19.30
2016,07,04,03,37,19.30
2016,07,04,03,38,19.30
2016,07,04,03,39,16.10
2016,07,04,03,40,16.10
2016,07,04,03,41,9.60
2016,07,04,03,42,11.30
2016,07,04,03,43,9.60
2016,07,04,03,44,11.30
2016,07,04,03,45,12.90
2016,07,04,03,46,9.60
2016,07,04,03,47,12.90
2016,07,04,03,48,9.60
2016,07,04,03,49,16.10
2016,07,04,03,50,9.60
2016,07,04,03,51,8.10
2016,07,04,03,52,9.60
2016,07,04,03,53,9.60
2016,07,04,03,54,8.10
2016,07,04,03,55,14.50
2016,07,04,03,56,11.30
2016,07,04,03,57,9.60
2016,07,04,03,58,16.10
2016,07,04,03,59,8.10
2016,07,04,04,00,9.60
2016,07,04,04,01,12.90
2016,07,04,04,02,11.30
2016,07,04,04,03,6.40
2016,07,04,04,04,9.60
2016,07,04,04,05,14.50
2016,07,04,04,06,11.30
2016,07,04,04,07,9.60
2016,07,04,04,08,9.60
2016,07,04,04,09,9.60
2016,07,04,04,10,16.10
2016,07,04,04,11,11.30
2016,07,04,04,12,16.10
2016,07,04,04,13,14.50
2016,07,04,04,14,9.60
2016,07,04,04,15,12.90
2016,07,04,04,16,17.70
2016,07,04,04,17,11.30
2016,07,04,04,18,11.30
2016,07,04,04,19,14.50
2016,07,04,04,20,16.10
2016,07,04,04,21,16.10
2016,07,04,04,22,8.10
2016,07,04,04,23,8.10
2016,07,04,04,24,8.10
2016,07,04,04,25,14.50
2016,07,04,04,26,16.10
2016,07,04,04,27,17.70
2016,07,04,04,28,11.30
2016,07,04,04,29,8.10
2016,07,04,04,30,16.10
2016,07,04,04,31,11.30
2016,07,04,04,32,16.10
2016,07,04,04,33,16.10
2016,07,04,04,34,11.30
2016,07,04,04,35,11.30
2016,07,04,04,36,11.30
2016,07,04,04,37,8.10
2016,07,04,04,38,9.60
2016,07,04,04,39,11.30
2016,07,04,04,40,11.30
2016,07,04,04,41,9.60
2016,07,04,04,42,11.30
2016,07,04,04,43,9.60
2016,07,04,04,44,9.60
2016,07,04,04,45,14.50
2016,07,04,04,46,9.60
2016,07,04,04,47,6.40
2016,07,04,04,48,8.10
2016,07,04,04,49,8.10
2016,07,04,04,50,4.80
2016,07,04,04,51,6.40
2016,07,04,04,52,6.40
2016,07,04,04,53,11.30
2016,07,04,04,54,11.30
2016,07,04,04,55,11.30
2016,07,04,04,56,9.60
2016,07,04,04,57,8.10
2016,07,04,04,58,8.10
2016,07,04,04,59,8.10
2016,07,04,05,00,9.60
2016,07,04,05,01,8.10
2016,07,04,05,02,8.10
2016,07,04,05,03,4.80
2016,07,04,05,04,8.10
2016,07,04,05,05,8.10
2016,07,04,05,06,9.60
2016,07,04,05,07,6.40
2016,07,04,05,08,6.40
2016,07,04,05,09,6.40
2016,07,04,05,10,6.40
2016,07,04,05,11,8.10
2016,07,04,05,12,6.40
2016,07,04,05,13,4.80
2016,07,04,05,14,6.40
2016,07,04,05,15,4.80
2016,07,04,05,16,6.40
2016,07,04,05,17,9.60
2016,07,04,05,18,11.30
2016,07,04,05,19,8.10
2016,07,04,05,20,8.10
2016,07,04,05,21,8.10
2016,07,04,05,22,8.10
2016,07,04,05,23,8.10
2016,07,04,05,24,8.10
2016,07,04,05,25,8.10
2016,07,04,05,26,6.40
2016,07,04,05,27,8.10
2016,07,04,05,28,8.10
2016,07,04,05,29,8.10
2016,07,04,05,30,6.40
2016,07,04,05,31,6.40
2016,07,04,05,32,6.40
2016,07,04,05,33,9.60
2016,07,04,05,34,9.60
2016,07,04,05,35,9.60
2016,07,04,05,36,9.60
2016,07,04,05,37,6.40
2016,07,04,05,38,8.10
2016,07,04,05,39,8.10
2016,07,04,05,40,6.40
2016,07,04,05,41,6.40
2016,07,04,05,42,4.80
2016,07,04,05,43,3.20
2016,07,04,05,44,4.80
2016,07,04,05,45,4.80
2016,07,04,05,46,6.40
2016,07,04,05,47,8.10
2016,07,04,05,48,4.80
2016,07,04,05,49,8.10
2016,07,04,05,50,4.80
2016,07,04,05,51,4.80
2016,07,04,05,52,4.80
2016,07,04,05,53,4.80
2016,07,04,05,54,6.40
2016,07,04,05,55,6.40
2016,07,04,05,56,6.40
2016,07,04,05,57,8.10
2016,07,04,05,58,4.80
2016,07,04,05,59,6.40
2016,07,04,06,00,6.40
2016,07,04,06,01,8.10
2016,07,04,06,02,9.60
2016,07,04,06,03,11.30
2016,07,04,06,04,8.10
2016,07,04,06,05,9.60
2016,07,04,06,06,11.30
2016,07,04,06,07,8.10
2016,07,04,06,08,8.10
2016,07,04,06,09,9.60
2016,07,04,06,10,11.30
2016,07,04,06,11,14.50
2016,07,04,06,12,16.10
2016,07,04,06,13,19.30
2016,07,04,06,14,11.30
2016,07,04,06,15,16.10
2016,07,04,06,16,11.30
2016,07,04,06,17,9.60
2016,07,04,06,18,11.30
2016,07,04,06,19,11.30
2016,07,04,06,20,11.30
2016,07,04,06,21,16.10
2016,07,04,06,22,14.50
2016,07,04,06,23,9.60
2016,07,04,06,24,8.10
2016,07,04,06,25,19.30
2016,07,04,06,26,17.70
2016,07,04,06,27,14.50
2016,07,04,06,28,16.10
2016,07,04,06,29,14.50
2016,07,04,06,30,9.60
2016,07,04,06,31,11.30
2016,07,04,06,32,12.90
2016,07,04,06,33,17.70
2016,07,04,06,34,11.30
2016,07,04,06,35,12.90
2016,07,04,06,36,14.50
2016,07,04,06,37,9.60
2016,07,04,06,38,11.30
2016,07,04,06,39,19.30
2016,07,04,06,40,16.10
2016,07,04,06,41,11.30
2016,07,04,06,42,14.50
2016,07,04,06,43,19.30
2016,07,04,06,44,20.90
2016,07,04,06,45,16.10
2016,07,04,06,46,11.30
2016,07,04,06,47,12.90
2016,07,04,06,48,14.50
2016,07,04,06,49,17.70
2016,07,04,06,50,27.40
2016,07,04,06,51,17.70
2016,07,04,06,52,11.30
2016,07,04,06,53,19.30
2016,07,04,06,54,20.90
2016,07,04,06,55,20.90
2016,07,04,06,56,19.30
2016,07,04,06,57,11.30
2016,07,04,06,58,6.40
2016,07,04,06,59,16.10
2016,07,04,07,00,19.30
2016,07,04,07,01,20.90
2016,07,04,07,02,22.50
2016,07,04,07,03,17.70
2016,07,04,07,04,19.30
2016,07,04,07,05,11.30
2016,07,04,07,06,19.30
2016,07,04,07,07,22.50
2016,07,04,07,08,20.90
2016,07,04,07,09,14.50
2016,07,04,07,10,22.50
2016,07,04,07,11,20.90
2016,07,04,07,12,17.70
2016,07,04,07,13,11.30
2016,07,04,07,14,17.70
2016,07,04,07,15,16.10
2016,07,04,07,16,14.50
2016,07,04,07,17,9.60
2016,07,04,07,18,14.50
2016,07,04,07,19,11.30
2016,07,04,07,20,9.60
2016,07,04,07,21,14.50
2016,07,04,07,22,16.10
2016,07,04,07,23,17.70
2016,07,04,07,24,14.50
2016,07,04,07,25,17.70
2016,07,04,07,26,16.10
2016,07,04,07,27,16.10
2016,07,04,07,28,11.30
2016,07,04,07,29,11.30
2016,07,04,07,30,17.70
2016,07,04,07,31,11.30
2016,07,04,07,32,9.60
2016,07,04,07,33,11.30
2016,07,04,07,34,12.90
2016,07,04,07,35,16.10
2016,07,04,07,36,14.50
2016,07,04,07,37,12.90
2016,07,04,07,38,14.50
2016,07,04,07,39,16.10
2016,07,04,07,40,14.50
2016,07,04,07,41,8.10
2016,07,04,07,42,8.10
2016,07,04,07,43,11.30
2016,07,04,07,44,9.60
2016,07,04,07,45,8.10
2016,07,04,07,46,14.50
2016,07,04,07,47,12.90
2016,07,04,07,48,9.60
2016,07,04,07,49,6.40
2016,07,04,07,50,9.60
2016,07,04,07,51,9.60
2016,07,04,07,52,11.30
2016,07,04,07,53,16.10
2016,07,04,07,54,17.70
2016,07,04,07,55,17.70
2016,07,04,07,56,19.30
2016,07,04,07,57,20.90
2016,07,04,07,58,16.10
2016,07,04,07,59,14.50
2016,07,04,08,00,11.30
2016,07,04,08,01,9.60
2016,07,04,08,02,9.60
2016,07,04,08,03,11.30
2016,07,04,08,04,16.10
2016,07,04,08,05,8.10
2016,07,04,08,06,14.50
2016,07,04,08,07,9.60
2016,07,04,08,08,11.30
2016,07,04,08,09,14.50
2016,07,04,08,10,19.30
2016,07,04,08,11,16.10
2016,07,04,08,12,14.50
2016,07,04,08,13,9.60
2016,07,04,08,14,8.10
2016,07,04,08,15,4.80
2016,07,04,08,16,8.10
2016,07,04,08,17,6.40
2016,07,04,08,18,6.40
2016,07,04,08,19,14.50
2016,07,04,08,20,14.50
2016,07,04,08,21,16.10
2016,07,04,08,22,11.30
2016,07,04,08,23,11.30
2016,07,04,08,24,4.80
2016,07,04,08,25,8.10
2016,07,04,08,26,11.30
2016,07,04,08,27,11.30
2016,07,04,08,28,8.10
2016,07,04,08,29,11.30
2016,07,04,08,30,16.10
2016,07,04,08,31,6.40
2016,07,04,08,32,11.30
2016,07,04,08,33,4.80
2016,07,04,08,34,4.80
2016,07,04,08,35,4.80
2016,07,04,08,36,4.80
2016,07,04,08,37,3.20
2016,07,04,08,38,6.40
2016,07,04,08,39,6.40
2016,07,04,08,40,4.80
2016,07,04,08,41,6.40
2016,07,04,08,42,8.10
2016,07,04,08,43,8.10
2016,07,04,08,44,11.30
2016,07,04,08,45,11.30
2016,07,04,08,46,17.70
2016,07,04,08,47,16.10
2016,07,04,08,48,16.10
2016,07,04,08,49,19.30
2016,07,04,08,50,19.30
2016,07,04,08,51,17.70
2016,07,04,08,52,14.50
2016,07,04,08,53,16.10
2016,07,04,08,54,22.50
2016,07,04,08,55,20.90
2016,07,04,08,56,19.30
2016,07,04,08,57,22.50
2016,07,04,08,58,11.30
2016,07,04,08,59,19.30
2016,07,04,09,00,20.90
2016,07,04,09,01,24.20
2016,07,04,09,02,24.20
2016,07,04,09,03,16.10
2016,07,04,09,04,17.70
2016,07,04,09,05,22.50
2016,07,04,09,06,27.40
2016,07,04,09,07,27.40
2016,07,04,09,08,19.30
2016,07,04,09,09,16.10
2016,07,04,09,10,17.70
2016,07,04,09,11,22.50
2016,07,04,09,12,22.50
2016,07,04,09,13,22.50
2016,07,04,09,14,22.50
2016,07,04,09,15,17.70
2016,07,04,09,16,16.10
2016,07,04,09,17,16.10
2016,07,04,09,18,9.60
2016,07,04,09,19,17.70
2016,07,04,09,20,12.90
2016,07,04,09,21,16.10
2016,07,04,09,22,11.30
2016,07,04,09,23,25.70
2016,07,04,09,24,22.50
2016,07,04,09,25,17.70
2016,07,04,09,26,17.70
2016,07,04,09,27,29.00
2016,07,04,09,28,29.00
2016,07,04,09,29,27.40
2016,07,04,09,30,24.20
2016,07,04,09,31,19.30
2016,07,04,09,32,20.90
2016,07,04,09,33,17.70
2016,07,04,09,34,19.30
2016,07,04,09,35,17.70
2016,07,04,09,36,14.50
2016,07,04,09,37,12.90
2016,07,04,09,38,17.70
2016,07,04,09,39,19.30
2016,07,04,09,40,16.10
2016,07,04,09,41,17.70
2016,07,04,09,42,20.90
2016,07,04,09,43,22.50
2016,07,04,09,44,14.50
2016,07,04,09,45,16.10
2016,07,04,09,46,14.50
2016,07,04,09,47,20.90
2016,07,04,09,48,20.90
2016,07,04,09,49,17.70
2016,07,04,09,50,24.20
2016,07,04,09,51,19.30
2016,07,04,09,52,19.30
2016,07,04,09,53,19.30
2016,07,04,09,54,17.70
2016,07,04,09,55,11.30
2016,07,04,09,56,20.90
2016,07,04,09,57,20.90
2016,07,04,09,58,20.90
2016,07,04,09,59,25.70
2016,07,04,10,00,22.50
2016,07,04,10,01,17.70
2016,07,04,10,02,27.40
2016,07,04,10,03,30.60
2016,07,04,10,04,24.20
2016,07,04,10,05,24.20
2016,07,04,10,06,22.50
2016,07,04,10,07,17.70
2016,07,04,10,08,17.70
2016,07,04,10,09,20.90
2016,07,04,10,10,24.20
2016,07,04,10,11,25.70
2016,07,04,10,12,25.70
2016,07,04,10,13,24.20
2016,07,04,10,14,19.30
2016,07,04,10,15,19.30
2016,07,04,10,16,19.30
2016,07,04,10,17,14.50
2016,07,04,10,18,16.10
2016,07,04,10,19,19.30
2016,07,04,10,20,16.10
2016,07,04,10,21,19.30
2016,07,04,10,22,16.10
2016,07,04,10,23,20.90
2016,07,04,10,24,19.30
2016,07,04,10,25,16.10
2016,07,04,10,26,19.30
2016,07,04,10,27,22.50
2016,07,04,10,28,24.20
2016,07,04,10,29,20.90
2016,07,04,10,30,25.70
2016,07,04,10,31,29.00
2016,07,04,10,32,25.70
2016,07,04,10,33,33.80
2016,07,04,10,34,22.50
2016,07,04,10,35,20.90
2016,07,04,10,36,29.00
2016,07,04,10,37,29.00
2016,07,04,10,38,29.00
2016,07,04,10,39,29.00
2016,07,04,10,40,32.20
2016,07,04,10,41,27.40
2016,07,04,10,42,27.40
2016,07,04,10,43,19.30
2016,07,04,10,44,24.20
2016,07,04,10,45,29.00
2016,07,04,10,46,25.70
2016,07,04,10,47,24.20
2016,07,04,10,48,29.00
2016,07,04,10,49,29.00
2016,07,04,10,50,32.20
2016,07,04,10,51,32.20
2016,07,04,10,52,27.40
2016,07,04,10,53,38.60
2016,07,04,10,54,27.40
2016,07,04,10,55,27.40
2016,07,04,10,56,32.20
2016,07,04,10,57,20.90
2016,07,04,10,58,30.60
2016,07,04,10,59,24.20
2016,07,04,11,00,33.80
2016,07,04,11,01,30.60
2016,07,04,11,02,30.60
2016,07,04,11,03,32.20
2016,07,04,11,04,29.00
2016,07,04,11,05,32.20
2016,07,04,11,06,30.60
2016,07,04,11,07,29.00
2016,07,04,11,08,20.90
2016,07,04,11,09,25.70
2016,07,04,11,10,30.60
2016,07,04,11,11,32.20
2016,07,04,11,12,25.70
2016,07,04,11,13,22.50
2016,07,04,11,14,22.50
2016,07,04,11,15,27.40
2016,07,04,11,16,27.40
2016,07,04,11,17,24.20
2016,07,04,11,18,33.80
2016,07,04,11,19,32.20
2016,07,04,11,20,29.00
2016,07,04,11,21,30.60
2016,07,04,11,22,32.20
2016,07,04,11,23,32.20
2016,07,04,11,24,30.60
2016,07,04,11,25,24.20
2016,07,04,11,26,32.20
2016,07,04,11,27,35.40
2016,07,04,11,28,27.40
2016,07,04,11,29,35.40
2016,07,04,11,30,32.20
2016,07,04,11,31,22.50
2016,07,04,11,32,27.40
2016,07,04,11,33,33.80
2016,07,04,11,34,27.40
2016,07,04,11,35,25.70
2016,07,04,11,36,27.40
2016,07,04,11,37,27.40
2016,07,04,11,38,30.60
2016,07,04,11,39,32.20
2016,07,04,11,40,29.00
2016,07,04,11,41,40.20
2016,07,04,11,42,40.20
2016,07,04,11,43,27.40
2016,07,04,11,44,30.60
2016,07,04,11,45,19.30
2016,07,04,11,46,32.20
2016,07,04,11,47,35.40
2016,07,04,11,48,32.20
2016,07,04,11,49,37.00
2016,07,04,11,50,24.20
2016,07,04,11,51,27.40
2016,07,04,11,52,24.20
2016,07,04,11,53,20.90
2016,07,04,11,54,17.70
2016,07,04,11,55,27.40
2016,07,04,11,56,24.20
2016,07,04,11,57,33.80
2016,07,04,11,58,32.20
2016,07,04,11,59,25.70
2016,07,04,12,00,20.90
2016,07,04,12,01,25.70
2016,07,04,12,02,25.70
2016,07,04,12,03,24.20
2016,07,04,12,04,25.70
2016,07,04,12,05,30.60
2016,07,04,12,06,24.20
2016,07,04,12,07,27.40
2016,07,04,12,08,33.80
2016,07,04,12,09,29.00
2016,07,04,12,10,35.40
2016,07,04,12,11,33.80
2016,07,04,12,12,24.20
2016,07,04,12,13,29.00
2016,07,04,12,14,35.40
2016,07,04,12,15,32.20
2016,07,04,12,16,22.50
2016,07,04,12,17,22.50
2016,07,04,12,18,29.00
2016,07,04,12,19,25.70
2016,07,04,12,20,32.20
2016,07,04,12,21,27.40
2016,07,04,12,22,35.40
2016,07,04,12,23,30.60
2016,07,04,12,24,20.90
2016,07,04,12,25,29.00
2016,07,04,12,26,27.40
2016,07,04,12,27,27.40
2016,07,04,12,28,27.40
2016,07,04,12,29,25.70
2016,07,04,12,30,17.70
2016,07,04,12,31,27.40
2016,07,04,12,32,27.40
2016,07,04,12,33,30.60
2016,07,04,12,34,27.40
2016,07,04,12,35,19.30
2016,07,04,12,36,22.50
2016,07,04,12,37,24.20
2016,07,04,12,38,27.40
2016,07,04,12,39,27.40
2016,07,04,12,40,32.20
2016,07,04,12,41,27.40
2016,07,04,12,42,35.40
2016,07,04,12,43,33.80
2016,07,04,12,44,27.40
2016,07,04,12,45,32.20
2016,07,04,12,46,33.80
2016,07,04,12,47,32.20
2016,07,04,12,48,25.70
2016,07,04,12,49,32.20
2016,07,04,12,50,33.80
2016,07,04,12,51,25.70
2016,07,04,12,52,22.50
2016,07,04,12,53,32.20
2016,07,04,12,54,24.20
2016,07,04,12,55,20.90
2016,07,04,12,56,30.60
2016,07,04,12,57,37.00
2016,07,04,12,58,29.00
2016,07,04,12,59,17.70
2016,07,04,13,00,16.10
2016,07,04,13,01,25.70
2016,07,04,13,02,27.40
2016,07,04,13,03,14.50
2016,07,04,13,04,20.90
2016,07,04,13,05,25.70
2016,07,04,13,06,38.60
2016,07,04,13,07,37.00
2016,07,04,13,08,27.40
2016,07,04,13,09,38.60
2016,07,04,13,10,27.40
2016,07,04,13,11,30.60
2016,07,04,13,12,29.00
2016,07,04,13,13,27.40
2016,07,04,13,14,25.70
2016,07,04,13,15,30.60
2016,07,04,13,16,33.80
2016,07,04,13,17,32.20
2016,07,04,13,18,27.40
2016,07,04,13,19,29.00
2016,07,04,13,20,29.00
2016,07,04,13,21,35.40
2016,07,04,13,22,29.00
2016,07,04,13,23,37.00
2016,07,04,13,24,33.80
2016,07,04,13,25,29.00
2016,07,04,13,26,22.50
2016,07,04,13,27,38.60
2016,07,04,13,28,22.50
2016,07,04,13,29,20.90
2016,07,04,13,30,38.60
2016,07,04,13,31,33.80
2016,07,04,13,32,37.00
2016,07,04,13,33,37.00
2016,07,04,13,34,35.40
2016,07,04,13,35,32.20
2016,07,04,13,36,35.40
2016,07,04,13,37,27.40
2016,07,04,13,38,24.20
2016,07,04,13,39,32.20
2016,07,04,13,40,29.00
2016,07,04,13,41,27.40
2016,07,04,13,42,29.00
2016,07,04,13,43,19.30
2016,07,04,13,44,16.10
2016,07,04,13,45,29.00
2016,07,04,13,46,32.20
2016,07,04,13,47,24.20
2016,07,04,13,48,33.80
2016,07,04,13,49,29.00
2016,07,04,13,50,41.80
2016,07,04,13,51,37.00
2016,07,04,13,52,32.20
2016,07,04,13,53,33.80
2016,07,04,13,54,25.70
2016,07,04,13,55,19.30
2016,07,04,13,56,35.40
2016,07,04,13,57,37.00
2016,07,04,13,58,25.70
2016,07,04,13,59,33.80
2016,07,04,14,00,25.70
2016,07,04,14,01,27.40
2016,07,04,14,02,24.20
2016,07,04,14,03,37.00
2016,07,04,14,04,32.20
2016,07,04,14,05,35.40
2016,07,04,14,06,27.40
2016,07,04,14,07,29.00
2016,07,04,14,08,30.60
2016,07,04,14,09,22.50
2016,07,04,14,10,33.80
2016,07,04,14,11,30.60
2016,07,04,14,12,32.20
2016,07,04,14,13,20.90
2016,07,04,14,14,20.90
2016,07,04,14,15,24.20
2016,07,04,14,16,38.60
2016,07,04,14,17,32.20
2016,07,04,14,18,35.40
2016,07,04,14,19,32.20
2016,07,04,14,20,30.60
2016,07,04,14,21,30.60
2016,07,04,14,22,32.20
2016,07,04,14,23,27.40
2016,07,04,14,24,27.40
2016,07,04,14,25,38.60
2016,07,04,14,26,38.60
2016,07,04,14,27,25.70
2016,07,04,14,28,37.00
2016,07,04,14,29,32.20
2016,07,04,14,30,38.60
2016,07,04,14,31,53.10
2016,07,04,14,32,41.80
2016,07,04,14,33,30.60
2016,07,04,14,34,29.00
2016,07,04,14,35,33.80
2016,07,04,14,36,41.80
2016,07,04,14,37,38.60
2016,07,04,14,38,41.80
2016,07,04,14,39,45.10
2016,07,04,14,40,40.20
2016,07,04,14,41,30.60
2016,07,04,14,42,25.70
2016,07,04,14,43,20.90
2016,07,04,14,44,41.80
2016,07,04,14,45,46.70
2016,07,04,14,46,38.60
2016,07,04,14,47,41.80
2016,07,04,14,48,40.20
2016,07,04,14,49,37.00
2016,07,04,14,50,38.60
2016,07,04,14,51,37.00
2016,07,04,14,52,43.50
2016,07,04,14,53,35.40
2016,07,04,14,54,37.00
2016,07,04,14,55,32.20
2016,07,04,14,56,32.20
2016,07,04,14,57,37.00
2016,07,04,14,58,33.80
2016,07,04,14,59,37.00
2016,07,04,15,00,25.70
2016,07,04,15,01,27.40
2016,07,04,15,02,33.80
2016,07,04,15,03,29.00
2016,07,04,15,04,33.80
2016,07,04,15,05,27.40
2016,07,04,15,06,30.60
2016,07,04,15,07,38.60
2016,07,04,15,08,37.00
2016,07,04,15,09,22.50
2016,07,04,15,10,22.50
2016,07,04,15,11,25.70
2016,07,04,15,12,24.20
2016,07,04,15,13,27.40
2016,07,04,15,14,32.20
2016,07,04,15,15,30.60
2016,07,04,15,16,25.70
2016,07,04,15,17,33.80
2016,07,04,15,18,41.80
2016,07,04,15,19,29.00
2016,07,04,15,20,22.50
2016,07,04,15,21,35.40
2016,07,04,15,22,37.00
2016,07,04,15,23,38.60
2016,07,04,15,24,38.60
2016,07,04,15,25,17.70
2016,07,04,15,26,29.00
2016,07,04,15,27,32.20
2016,07,04,15,28,38.60
2016,07,04,15,29,27.40
2016,07,04,15,30,35.40
2016,07,04,15,31,24.20
2016,07,04,15,32,20.90
2016,07,04,15,33,35.40
2016,07,04,15,34,37.00
2016,07,04,15,35,32.20
2016,07,04,15,36,32.20
2016,07,04,15,37,33.80
2016,07,04,15,38,41.80
2016,07,04,15,39,30.60
2016,07,04,15,40,32.20
2016,07,04,15,41,32.20
2016,07,04,15,42,33.80
2016,07,04,15,43,33.80
2016,07,04,15,44,33.80
2016,07,04,15,45,30.60
2016,07,04,15,46,29.00
2016,07,04,15,47,32.20
2016,07,04,15,48,38.60
2016,07,04,15,49,43.50
2016,07,04,15,50,30.60
2016,07,04,15,51,17.70
2016,07,04,15,52,29.00
2016,07,04,15,53,32.20
2016,07,04,15,54,29.00
2016,07,04,15,55,30.60
2016,07,04,15,56,22.50
2016,07,04,15,57,27.40
2016,07,04,15,58,33.80
2016,07,04,15,59,30.60
2016,07,04,16,00,24.20
2016,07,04,16,01,24.20
2016,07,04,16,02,37.00
2016,07,04,16,03,30.60
2016,07,04,16,04,37.00
2016,07,04,16,05,30.60
2016,07,04,16,06,24.20
2016,07,04,16,07,37.00
2016,07,04,16,08,32.20
2016,07,04,16,09,25.70
2016,07,04,16,10,25.70
2016,07,04,16,11,33.80
2016,07,04,16,12,20.90
2016,07,04,16,13,32.20
2016,07,04,16,14,25.70
2016,07,04,16,15,27.40
2016,07,04,16,16,27.40
2016,07,04,16,17,46.70
2016,07,04,16,18,32.20
2016,07,04,16,19,19.30
2016,07,04,16,20,32.20
2016,07,04,16,21,24.20
2016,07,04,16,22,19.30
2016,07,04,16,23,32.20
2016,07,04,16,24,45.10
2016,07,04,16,25,35.40
2016,07,04,16,26,24.20
2016,07,04,16,27,27.40
2016,07,04,16,28,24.20
2016,07,04,16,29,22.50
2016,07,04,16,30,37.00
2016,07,04,16,31,22.50
2016,07,04,16,32,27.40
2016,07,04,16,33,24.20
2016,07,04,16,34,27.40
2016,07,04,16,35,30.60
2016,07,04,16,36,24.20
2016,07,04,16,37,27.40
2016,07,04,16,38,22.50
2016,07,04,16,39,19.30
2016,07,04,16,40,19.30
2016,07,04,16,41,29.00
2016,07,04,16,42,29.00
2016,07,04,16,43,32.20
2016,07,04,16,44,33.80
2016,07,04,16,45,29.00
2016,07,04,16,46,24.20
2016,07,04,16,47,20.90
2016,07,04,16,48,19.30
2016,07,04,16,49,30.60
2016,07,04,16,50,29.00
2016,07,04,16,51,30.60
2016,07,04,16,52,30.60
2016,07,04,16,53,40.20
2016,07,04,16,54,37.00
2016,07,04,16,55,35.40
2016,07,04,16,56,25.70
2016,07,04,16,57,27.40
2016,07,04,16,58,33.80
2016,07,04,16,59,27.40
2016,07,04,17,00,33.80
2016,07,04,17,01,29.00
2016,07,04,17,02,32.20
2016,07,04,17,03,32.20
2016,07,04,17,04,35.40
2016,07,04,17,05,43.50
2016,07,04,17,06,33.80
2016,07,04,17,07,32.20
2016,07,04,17,08,54.70
2016,07,04,17,09,30.60
2016,07,04,17,10,32.20
2016,07,04,17,11,30.60
2016,07,04,17,12,29.00
2016,07,04,17,13,25.70
2016,07,04,17,14,33.80
2016,07,04,17,15,27.40
2016,07,04,17,16,32.20
2016,07,04,17,17,19.30
2016,07,04,17,18,25.70
2016,07,04,17,19,25.70
2016,07,04,17,20,19.30
2016,07,04,17,21,22.50
2016,07,04,17,22,22.50
2016,07,04,17,23,19.30
2016,07,04,17,24,11.30
2016,07,04,17,25,24.20
2016,07,04,17,26,30.60
2016,07,04,17,27,22.50